Wind_Speed
38 39 39 39 39 39 40 40 41 42 43 43 44 44 45 45 45 45 46 46 47 48 49 50 51 52 53 53 55 56 57 58 60 61 62 64 65 66 67 67 67 68
38 38 38 38 39 39 40 41 42 42 43 43 44 44 45 45 45 45 46 47 48 49 50 51 52 53 54 55 56 57 59 60 62 63 64 65 66 67 67 67 69 70
38 38 38 38 39 40 41 41 42 42 42 43 43 44 44 45 45 46 47 48 49 50 51 52 53 54 55 56 57 59 61 62 63 64 65 66 67 67 67 69 70 71
38 39 39 40 41 42 42 42 42 42 42 42 43 44 44 45 46 47 48 49 50 51 52 53 55 56 57 58 59 61 62 64 65 66 66 67 67 68 69 70 70 69
38 40 41 42 42 43 43 42 42 42 42 42 43 43 44 45 47 48 49 50 51 53 54 55 56 57 59 60 61 63 64 65 66 66 67 67 68 69 69 68 68 69
39 40 40 41 41 41 42 42 42 42 41 42 43 44 45 46 48 49 50 52 53 55 56 57 58 59 60 62 63 64 65 66 67 67 68 69 69 68 66 66 69 72
40 40 40 40 40 41 41 41 41 41 41 42 43 44 45 47 48 50 51 53 55 56 57 58 59 60 61 63 64 65 66 67 68 69 69 69 67 65 64 67 71 73
40 40 40 40 40 41 41 42 41 41 41 42 43 45 46 47 49 51 53 54 56 58 59 60 60 61 62 64 65 66 67 68 69 69 68 66 64 63 66 70 72 71
41 41 41 41 41 41 42 42 42 41 42 43 44 46 47 49 50 52 54 56 57 59 60 61 61 62 63 64 66 67 69 69 69 68 66 65 64 65 70 73 72 72
44 43 43 42 42 42 42 42 42 42 43 44 46 47 48 50 52 54 56 57 59 60 61 62 62 63 64 66 67 69 70 69 68 66 66 66 66 69 72 73 73 75
46 45 44 43 42 43 43 43 43 44 45 46 47 49 50 52 54 55 57 58 60 61 62 62 63 64 66 67 68 69 70 68 65 65 67 68 69 71 72 73 76 78
46 45 44 43 43 44 44 45 45 46 47 48 49 51 52 54 55 57 58 60 61 62 62 64 65 66 67 68 69 69 68 66 65 67 69 70 71 71 72 75 78 80
46 45 45 44 44 45 46 47 47 48 49 50 51 52 53 55 56 58 59 60 62 62 64 66 66 67 68 68 69 69 67 66 67 69 70 70 71 73 74 78 80 81
45 45 45 45 45 46 47 48 49 49 50 51 52 53 53 54 56 58 59 61 62 63 65 66 67 68 68 69 70 69 68 68 69 70 71 72 74 76 78 79 80 81
44 45 45 45 46 47 48 49 50 51 52 52 53 53 53 54 56 58 59 60 62 63 65 66 67 68 68 69 70 70 70 70 71 72 73 75 76 77 79 80 81 83
44 44 45 46 48 49 50 51 52 52 53 53 53 53 54 55 56 57 58 60 61 62 63 64 66 67 68 70 71 71 72 72 72 73 74 74 75 78 81 83 84 84
44 45 47 48 49 51 52 52 53 53 53 53 53 53 54 55 56 57 58 59 60 61 62 63 65 67 68 68 70 71 72 71 71 72 74 76 78 81 83 84 84 83
46 47 49 50 51 52 52 53 52 52 52 52 52 52 54 56 57 58 60 62 62 63 64 65 66 67 68 69 71 72 72 71 71 74 76 78 81 82 83 83 82 82
48 49 50 51 51 51 51 52 51 50 50 50 50 52 55 58 60 62 63 65 66 68 69 68 68 69 70 71 72 72 71 71 73 75 77 79 81 82 82 82 82 82
49 50 49 49 49 49 50 50 50 49 50 50 50 51 53 56 59 61 63 65 68 70 70 69 68 68 69 70 71 71 70 71 73 76 77 79 80 81 82 83 83 83
47 47 47 47 48 48 48 49 49 49 50 51 51 52 54 55 57 59 62 65 67 68 68 67 67 68 69 71 71 71 72 74 75 77 78 80 81 83 84 84 83 81
45 45 46 46 47 47 47 48 49 50 51 52 53 54 56 57 57 58 60 62 64 66 67 66 65 67 70 72 73 74 75 76 77 78 80 82 84 85 84 81 79 79
46 46 45 45 45 46 46 48 49 51 53 55 56 57 59 59 58 59 61 62 65 67 68 66 66 69 72 73 75 76 77 77 79 80 82 84 84 81 79 78 78 78
45 44 43 43 44 46 48 50 53 55 57 58 59 60 60 58 59 62 63 64 66 68 68 69 71 73 74 75 76 77 79 80 82 83 83 82 79 77 77 77 77 77
42 42 43 45 48 50 52 54 56 58 59 61 62 63 61 59 60 62 62 63 65 66 67 70 73 75 76 77 78 80 82 83 83 82 80 78 76 75 76 76 76 77
42 45 48 50 52 54 55 57 58 59 61 62 64 64 62 61 61 61 62 64 65 66 69 72 75 76 77 78 80 81 82 81 80 78 76 74 74 75 76 77 78 80
Wind_Direction
280 281 281 281 281 281 282 282 281 281 280 280 279 279 278 278 278 278 277 277 276 276 276 277 277 278 279 280 281 283 284 285 286 287 289 290 291 293 294 295 297 297
281 281 281 281 282 282 282 281 281 281 281 281 281 281 280 279 278 277 277 276 276 276 276 277 278 279 279 281 282 283 284 285 287 288 289 291 292 294 295 296 297 297
282 282 282 283 284 284 283 282 282 281 281 281 281 280 279 278 277 276 276 276 275 276 276 277 278 279 280 281 282 284 285 286 288 289 290 292 293 294 295 296 296 296
284 284 285 285 286 286 285 284 283 282 282 281 281 280 279 278 277 277 276 276 276 277 277 277 278 279 281 282 283 284 286 287 289 290 291 292 293 294 295 295 295 296
285 286 286 286 286 286 286 285 284 284 283 283 282 281 281 279 279 278 278 278 278 278 278 279 280 281 282 283 284 285 287 288 289 290 291 292 293 294 295 295 296 298
285 285 285 285 285 285 285 284 284 283 283 283 283 282 281 280 280 280 280 279 279 279 279 280 281 282 283 284 285 286 287 288 289 290 291 292 293 295 296 297 298 299
286 286 286 286 285 284 284 283 282 282 282 282 282 281 281 280 280 280 279 279 279 280 281 281 282 283 284 285 286 287 288 288 290 291 292 294 296 297 297 297 298 299
288 288 287 287 286 285 284 283 283 283 282 282 282 281 281 281 280 280 280 280 280 281 281 282 282 283 285 286 287 287 288 289 290 292 294 297 298 297 296 297 298 299
290 289 288 287 287 286 285 284 284 284 284 284 283 282 281 281 280 280 280 280 280 281 281 282 284 285 286 287 287 288 288 289 291 294 297 298 296 294 295 297 299 301
291 290 289 288 287 286 285 284 284 284 284 284 284 283 282 281 280 280 280 280 281 282 283 284 285 285 286 287 287 288 289 291 294 296 297 296 295 294 296 298 300 301
291 291 290 288 287 286 286 286 286 286 286 285 285 284 283 282 281 281 281 281 282 283 284 285 286 287 288 288 288 289 291 294 295 295 294 295 295 296 298 299 300 300
290 289 288 286 286 286 286 287 287 287 287 286 285 284 284 283 282 282 283 284 284 286 287 288 289 289 288 288 290 292 294 295 293 292 293 295 296 298 298 299 299 299
286 286 285 284 284 285 286 287 288 288 287 286 285 285 285 285 285 285 285 285 286 287 288 288 287 287 288 290 294 295 295 293 291 292 294 296 297 297 298 298 297 297
283 282 282 283 284 285 286 287 287 286 286 285 285 285 285 285 285 285 285 286 287 287 287 286 286 288 291 294 295 294 292 291 292 294 296 297 297 297 297 297 296 297
280 280 281 282 283 284 285 285 285 284 283 283 283 284 284 284 284 285 285 286 286 286 286 287 289 291 292 294 293 292 291 293 295 297 298 298 297 297 296 296 296 297
278 278 279 280 280 281 282 282 282 281 281 281 281 281 282 283 283 283 284 285 285 286 286 287 288 290 291 292 292 292 293 294 296 297 297 296 296 295 294 294 295 295
275 275 276 277 278 279 279 279 279 279 279 280 280 281 282 282 282 282 283 283 283 284 285 286 287 289 290 291 291 291 292 294 295 295 294 293 293 293 293 293 293 293
273 274 275 276 278 279 279 279 279 279 279 280 281 282 282 282 283 283 283 284 284 283 284 285 287 288 289 290 290 290 292 293 293 292 292 293 293 293 293 293 293 292
274 275 277 278 278 279 279 279 279 279 280 280 281 281 282 283 284 284 284 285 284 283 282 283 285 287 288 289 290 292 293 292 291 293 294 294 293 292 292 292 291 290
277 278 278 278 278 279 279 280 281 281 282 283 283 282 283 283 283 283 284 284 285 284 283 283 285 287 288 290 291 292 290 290 291 293 293 291 291 291 291 290 289 287
279 279 279 280 280 280 281 282 283 284 285 286 286 286 285 284 282 282 283 285 286 286 285 285 286 287 288 290 291 289 288 289 290 290 288 288 289 290 289 288 287 287
281 281 281 282 282 283 284 286 287 288 290 290 290 289 288 286 285 283 283 284 286 285 283 283 284 286 289 292 291 288 288 287 287 287 288 290 290 290 289 287 286 287
283 283 284 285 286 288 290 291 292 292 293 292 291 290 289 288 288 288 286 286 287 286 284 283 285 289 291 290 287 286 286 286 287 289 290 291 290 288 286 285 285 287
285 286 288 289 291 293 293 294 294 293 293 292 291 290 290 288 287 286 285 284 285 286 286 286 287 288 286 284 284 286 287 287 288 289 288 287 286 284 284 285 286 288
285 288 290 292 294 294 294 293 293 292 292 291 291 291 289 286 284 283 283 283 284 285 285 284 284 283 283 284 286 286 286 286 286 285 285 284 283 283 284 286 288 289
285 289 292 294 296 296 295 293 292 291 290 290 290 289 287 283 281 281 281 281 282 284 284 283 282 281 282 284 284 284 284 284 284 283 282 281 281 283 286 287 289 290
Height
5795 5794 5793 5793 5792 5791 5790 5789 5788 5787 5787 5786 5785 5784 5784 5783 5782 5782 5781 5780 5779 5778 5777 5776 5775 5773 5772 5771 5769 5768 5766 5764 5762 5760 5758 5756 5754 5751 5749 5746 5744 5741
5790 5789 5789 5788 5787 5786 5785 5784 5783 5782 5781 5781 5780 5779 5778 5778 5777 5776 5775 5774 5773 5772 5771 5770 5769 5767 5766 5765 5763 5762 5760 5758 5756 5754 5752 5749 5747 5744 5742 5739 5736 5734
5786 5785 5784 5783 5782 5781 5780 5779 5778 5777 5776 5775 5775 5774 5773 5773 5772 5771 5770 5769 5768 5767 5765 5764 5763 5761 5760 5759 5757 5755 5754 5751 5749 5747 5745 5743 5740 5737 5735 5732 5729 5726
5781 5781 5780 5779 5777 5776 5775 5774 5773 5772 5771 5770 5769 5768 5768 5767 5766 5765 5764 5763 5762 5761 5759 5758 5757 5755 5754 5753 5751 5749 5747 5745 5743 5741 5738 5735 5733 5730 5728 5725 5722 5719
5776 5776 5775 5773 5772 5771 5770 5769 5768 5767 5766 5765 5764 5763 5762 5762 5761 5760 5758 5757 5756 5755 5753 5752 5751 5750 5748 5746 5745 5743 5741 5738 5736 5734 5731 5728 5726 5723 5720 5717 5714 5711
5771 5770 5769 5768 5767 5766 5765 5764 5763 5761 5760 5759 5758 5758 5757 5756 5755 5754 5753 5751 5750 5749 5747 5746 5745 5743 5742 5740 5738 5736 5734 5731 5729 5726 5724 5721 5719 5716 5713 5710 5707 5703
5766 5765 5764 5763 5762 5761 5760 5758 5757 5756 5755 5754 5753 5752 5751 5750 5749 5748 5747 5745 5744 5743 5741 5740 5738 5737 5735 5733 5731 5729 5727 5724 5722 5719 5716 5714 5711 5708 5705 5702 5699 5696
5761 5760 5759 5758 5757 5755 5754 5753 5751 5750 5749 5748 5747 5746 5745 5744 5743 5742 5740 5739 5738 5736 5734 5733 5731 5730 5728 5726 5724 5721 5719 5717 5714 5712 5710 5707 5704 5701 5698 5695 5692 5689
5755 5754 5753 5752 5751 5749 5748 5746 5745 5744 5743 5742 5741 5740 5739 5738 5737 5736 5734 5733 5731 5729 5728 5726 5724 5723 5721 5718 5716 5714 5712 5709 5707 5705 5702 5699 5696 5693 5690 5687 5685 5681
5748 5747 5746 5745 5744 5743 5742 5740 5739 5738 5737 5736 5735 5734 5733 5732 5731 5729 5727 5726 5724 5722 5721 5719 5717 5715 5713 5711 5709 5707 5704 5703 5700 5697 5695 5692 5689 5686 5683 5680 5676 5673
5742 5741 5740 5739 5738 5737 5735 5734 5733 5732 5731 5730 5729 5728 5727 5726 5724 5723 5721 5719 5717 5715 5714 5712 5710 5708 5706 5704 5702 5700 5698 5696 5693 5690 5687 5685 5682 5679 5675 5672 5668 5664
5736 5735 5733 5733 5732 5731 5730 5729 5728 5727 5726 5724 5723 5722 5721 5719 5718 5716 5714 5712 5710 5708 5706 5704 5702 5700 5698 5697 5695 5693 5691 5688 5686 5683 5680 5678 5674 5671 5667 5663 5660 5656
5729 5728 5727 5726 5726 5725 5724 5723 5722 5721 5720 5718 5717 5715 5714 5713 5711 5709 5707 5705 5703 5701 5699 5697 5695 5693 5691 5690 5688 5686 5683 5681 5678 5676 5673 5670 5666 5663 5659 5655 5651 5648
5723 5722 5721 5720 5719 5719 5718 5717 5716 5715 5713 5712 5710 5709 5708 5706 5705 5703 5701 5699 5697 5695 5693 5690 5688 5686 5684 5682 5680 5678 5676 5673 5671 5668 5665 5662 5658 5654 5651 5646 5642 5639
5716 5715 5715 5714 5713 5712 5711 5710 5709 5708 5707 5705 5704 5702 5701 5700 5698 5696 5694 5693 5691 5688 5686 5684 5681 5679 5677 5674 5672 5670 5668 5665 5663 5660 5657 5653 5650 5646 5642 5638 5634 5631
5710 5709 5708 5707 5706 5705 5704 5703 5702 5701 5699 5698 5697 5695 5694 5693 5691 5689 5687 5686 5684 5681 5679 5676 5674 5671 5669 5666 5664 5662 5659 5657 5654 5651 5648 5645 5642 5637 5633 5629 5626 5622
5704 5702 5701 5700 5700 5698 5697 5696 5695 5694 5692 5691 5690 5688 5687 5685 5683 5682 5680 5678 5676 5674 5671 5668 5666 5663 5660 5658 5656 5653 5651 5649 5646 5643 5640 5637 5633 5629 5624 5621 5617 5614
5696 5695 5694 5693 5692 5691 5690 5689 5688 5687 5686 5684 5683 5682 5680 5678 5677 5675 5673 5670 5668 5666 5663 5660 5657 5654 5651 5649 5647 5645 5643 5641 5638 5635 5632 5629 5624 5620 5616 5612 5609 5605
5689 5689 5688 5686 5685 5684 5683 5682 5681 5681 5679 5678 5677 5675 5673 5672 5670 5668 5665 5663 5660 5657 5654 5652 5648 5645 5643 5641 5639 5637 5635 5633 5630 5627 5624 5620 5616 5612 5608 5604 5600 5595
5683 5682 5681 5680 5679 5678 5676 5676 5675 5674 5673 5671 5670 5668 5666 5665 5662 5660 5658 5655 5653 5650 5647 5644 5641 5638 5635 5633 5631 5629 5627 5625 5623 5619 5616 5611 5607 5603 5599 5595 5591 5586
5677 5676 5675 5673 5672 5671 5670 5669 5668 5667 5666 5664 5663 5661 5659 5657 5654 5652 5650 5647 5645 5643 5639 5637 5633 5630 5627 5625 5623 5621 5618 5616 5614 5610 5606 5603 5599 5595 5590 5586 5582 5578
5670 5669 5668 5667 5666 5665 5664 5662 5661 5659 5658 5656 5655 5653 5650 5648 5646 5644 5642 5640 5637 5634 5631 5629 5625 5621 5618 5617 5614 5612 5609 5607 5604 5601 5597 5594 5590 5586 5582 5577 5573 5569
5663 5662 5661 5660 5658 5657 5656 5655 5653 5651 5650 5648 5646 5644 5642 5640 5638 5636 5634 5632 5629 5625 5623 5620 5616 5613 5610 5608 5605 5602 5599 5596 5594 5592 5589 5586 5582 5577 5573 5569 5565 5560
5655 5654 5653 5652 5651 5650 5648 5647 5645 5643 5642 5640 5638 5636 5634 5632 5630 5628 5626 5624 5621 5618 5615 5612 5609 5605 5602 5599 5596 5592 5589 5586 5584 5582 5580 5577 5573 5569 5564 5560 5556 5552
5647 5646 5645 5644 5643 5642 5641 5639 5637 5635 5633 5631 5629 5627 5625 5624 5622 5621 5618 5616 5613 5610 5607 5604 5600 5597 5593 5589 5586 5583 5579 5577 5574 5572 5570 5567 5564 5560 5556 5552 5547 5543
5639 5638 5637 5636 5635 5634 5632 5631 5629 5627 5625 5623 5621 5619 5617 5616 5614 5612 5610 5608 5605 5602 5599 5596 5592 5588 5584 5580 5577 5573 5570 5567 5564 5562 5561 5558 5555 5553 5549 5544 5538 5533